Olathe New Century, KS

10:46 PM CST on November 24, 2017 (GMT -0600)
New Century Aircenter

Weather History for KIXD - October, 2013

Change the Weather History Date:

Friday, October 4, 2013

  Actual Average Record
Temperature  
Mean Temperature 76 °F -  
Max Temperature 88 °F 69 °F 88 °F (2013)
Min Temperature 66 °F 47 °F 37 °F (2010)
Cooling Degree Days 12    
Growing Degree Days 26 (Base 50)    
Moisture  
Dew Point 66 °F    
Average Humidity 76    
Maximum Humidity 94    
Minimum Humidity 46    
Precipitation  
Precipitation 0.36 in - - ()
Sea Level Pressure  
Sea Level Pressure 29.81 in    
Wind  
Wind Speed 14 mph (South)    
Max Wind Speed 23 mph    
Max Gust Speed 33 mph    
Visibility 9 miles    
Events Rain , Thunderstorm    
Averages and records for this station are not official NWS values.
T = Trace of Precipitation, MM = Missing Value Source: NWS Daily Summary

Daily Weather History Graph

Daily Weather History Graph

Search for Another Location

Airport or City:

Trip Planner

Search our weather history database for the weather conditions in past years. The results will help you decide how hot, cold, wet, or windy it might be!

Date:

Astronomy

Oct. 04, 2013 Rise Set
Actual Time 7:18 AM CDT 6:57 PM CDT
Civil Twilight 6:51 AM CDT 7:23 PM CDT
Nautical Twilight 6:21 AM CDT 7:54 PM CDT
Astronomical Twilight 5:50 AM CDT 8:25 PM CDT
Moon 6:54 AM CDT (10/4) 6:40 PM CDT (10/4)
Length of Visible Light 12h 31m
Length of Day
11h 38m
Waning Crescent, 0% of the Moon is Illuminated
Oct 4
Waning Crescent
Oct 4
New
Oct 11
First Quarter
Oct 18
Full
Oct 26
Last Quarter

Hourly Weather History & Observations

Time (CDT) Temp. Heat Index Dew Point Humidity Pressure Visibility Wind Dir Wind Speed Gust Speed Precip Events Conditions
12:53 AM 72.0 °F - 64.9 °F 78% 29.79 in 10.0 mi SSE 10.4 mph - N/A   Clear
1:53 AM 71.1 °F - 64.9 °F 81% 29.79 in 10.0 mi SSE 11.5 mph - N/A   Clear
2:53 AM 71.1 °F - 66.0 °F 84% 29.78 in 10.0 mi South 13.8 mph 21.9 mph N/A   Clear
3:53 AM 71.1 °F - 66.0 °F 84% 29.78 in 10.0 mi South 13.8 mph 21.9 mph N/A   Clear
4:53 AM 70.0 °F - 66.0 °F 87% 29.78 in 10.0 mi SSE 17.3 mph 21.9 mph N/A   Clear
5:31 AM 69.8 °F - 66.2 °F 88% 29.81 in 10.0 mi SSE 12.7 mph - N/A   Mostly Cloudy
5:53 AM 70.0 °F - 66.0 °F 87% 29.78 in 10.0 mi SSE 13.8 mph - N/A   Overcast
6:43 AM 69.8 °F - 66.2 °F 88% 29.82 in 10.0 mi SSE 15.0 mph 21.9 mph N/A   Scattered Clouds
6:53 AM 69.1 °F - 66.0 °F 90% 29.78 in 10.0 mi SSE 16.1 mph 20.7 mph N/A   Partly Cloudy
7:53 AM 70.0 °F - 66.9 °F 90% 29.79 in 10.0 mi SSE 17.3 mph 23.0 mph N/A   Mostly Cloudy
8:53 AM 73.9 °F - 68.0 °F 82% 29.78 in 10.0 mi South 18.4 mph 26.5 mph N/A   Mostly Cloudy
9:53 AM 78.1 °F - 69.1 °F 74% 29.78 in 10.0 mi South 19.6 mph 28.8 mph N/A   Mostly Cloudy
10:53 AM 78.1 °F - 68.0 °F 71% 29.78 in 10.0 mi South 19.6 mph 28.8 mph N/A   Mostly Cloudy
11:00 AM 78.8 °F - 68.0 °F 69% 29.82 in 10.0 mi South 16.1 mph 29.9 mph N/A   Clear
11:53 AM 80.1 °F 82.7 °F 68.0 °F 67% 29.78 in 10.0 mi South 19.6 mph 27.6 mph N/A   Clear
12:53 PM 84.9 °F 88.2 °F 68.0 °F 57% 29.77 in 10.0 mi South 20.7 mph 32.2 mph N/A   Clear
1:53 PM 86.0 °F 88.8 °F 66.9 °F 53% 29.75 in 10.0 mi South 23.0 mph 33.4 mph N/A   Clear
2:53 PM 84.9 °F 87.6 °F 66.9 °F 55% 29.74 in 10.0 mi South 19.6 mph 26.5 mph N/A   Clear
3:53 PM 87.1 °F 88.3 °F 64.0 °F 46% 29.73 in 10.0 mi South 17.3 mph 31.1 mph N/A   Partly Cloudy
4:53 PM 86.0 °F 87.3 °F 64.0 °F 48% 29.72 in 10.0 mi South 16.1 mph 28.8 mph N/A   Clear
5:53 PM 84.0 °F 85.8 °F 64.9 °F 53% 29.73 in 10.0 mi SSE 16.1 mph 24.2 mph N/A   Clear
6:53 PM 80.1 °F 81.9 °F 64.9 °F 60% 29.77 in 10.0 mi SSE 11.5 mph - N/A   Clear
7:53 PM 79.0 °F - 64.9 °F 62% 29.78 in 10.0 mi South 12.7 mph - N/A   Clear
8:53 PM 78.1 °F - 66.0 °F 66% 29.80 in 10.0 mi South 13.8 mph - N/A   Partly Cloudy
9:22 PM 78.8 °F - 66.2 °F 65% 29.84 in 10.0 mi South 17.3 mph 21.9 mph N/A Thunderstorm Mostly Cloudy
9:40 PM 68.0 °F - 64.4 °F 88% 29.88 in 4.0 mi West 16.1 mph - 0.08 in Rain , Thunderstorm Heavy Thunderstorms and Rain
9:53 PM 66.9 °F - 64.0 °F 90% 29.86 in 3.0 mi West 11.5 mph - 0.18 in Rain , Thunderstorm Heavy Thunderstorms and Rain
10:02 PM 66.2 °F - 64.4 °F 94% 29.88 in 5.0 mi SW 6.9 mph - 0.01 in Rain , Thunderstorm Light Rain
10:43 PM 66.2 °F - 64.4 °F 94% 29.90 in 1.8 mi WSW 6.9 mph 18.4 mph 0.15 in Rain , Thunderstorm Heavy Thunderstorms and Rain
10:50 PM 66.2 °F - 64.4 °F 94% 29.91 in 2.5 mi WSW 9.2 mph - 0.17 in Rain , Thunderstorm Thunderstorms and Rain
10:53 PM 66.9 °F - 64.0 °F 90% 29.88 in 5.0 mi WSW 9.2 mph - 0.17 in Rain , Thunderstorm Thunderstorms and Rain
11:06 PM 66.2 °F - 64.4 °F 94% 29.93 in 10.0 mi WSW 11.5 mph - 0.00 in Rain Light Rain
11:53 PM 66.0 °F - 63.0 °F 90% 29.90 in 10.0 mi West 9.2 mph - 0.01 in   Scattered Clouds